Location: Ambassador Well
(38.9616°N, 119.3621°W)
Time: 02:20:23
(UTC+00:00)

Daily predictions for brighter satellites

Satellite Brightness Start Highest point End
(mag) Time Altitude Azimuth Time Altitude Azimuth Time Altitude Azimuth
Cosmos 1295 Rocket 4.5 00:55:38 10° N 01:01:49 74° E 01:08:04 10° SSE
SMAP 3.3 00:59:25 10° SE 01:03:52 47° ENE 01:08:19 10° N
H-2A R/B 3.4 01:00:56 10° S 01:04:42 63° W 01:08:33 10° NNW
Cosmos 1862 4.2 01:01:00 10° NNW 01:04:57 56° W 01:08:50 10° S
Cosmos 2181 Rocket 4.4 01:01:07 10° SSE 01:07:09 45° E 01:13:09 10° NNE
Meteor 1-4 Rocket 4.0 01:08:42 10° SE 01:11:21 19° E 01:13:59 10° NE
Envisat 3.2 01:07:30 10° S 01:12:35 81° WSW 01:17:41 10° NNW
CORIOLIS 4.3 01:07:53 10° SSE 01:13:06 52° ENE 01:18:22 10° N
CZ-4C R/B 4.0 01:10:27 10° N 01:13:58 50° WNW 01:17:28 10° SSW
CZ-4B R/B 3.1 01:11:47 10° SSE 01:17:04 68° ENE 01:22:21 10° N
H-2A R/B 2.2 01:12:59 10° N 01:17:12 77° WNW 01:21:29 10° SSW
Cosmos 2237 Rocket 3.6 01:12:04 10° SW 01:17:14 37° WNW 01:22:26 10° N
NOAA 11 4.5 01:13:51 10° SE 01:18:57 44° ENE 01:24:05 10° N
AQUARIUS 4.2 01:15:14 10° SSE 01:19:38 60° ENE 01:24:04 10° N
CZ-2C R/B 4.4 01:16:58 10° E 01:19:42 15° ENE 01:22:22 10° NNE
USA 281 4.3 01:15:44 10° E 01:20:20 21° NE 01:24:57 10° N
CZ-4B R/B 1.8 01:18:58 10° NNE 01:21:52 36° E 01:24:48 10° SSE
Cosmos 773 Rocket 4.2 01:17:15 10° S 01:22:21 55° ESE 01:27:31 10° NNE
H-2A R/B 3.1 01:20:06 10° S 01:24:23 62° W 01:28:31 10° NNW
Radarsat Rocket 4.2 01:18:29 10° SSE 01:24:28 82° WSW 01:31:06 10° NNW
Cosmos 1633 Rocket 3.2 01:22:44 10° N 01:26:58 48° E 01:31:10 10° SSE
SKYMED 2 4.4 01:24:29 10° NE 01:28:21 31° E 01:32:11 10° SSE
Cosmos 389 Rocket 3.8 01:27:55 10° SSW 01:31:10 40° WNW 01:34:24 10° N
Cosmos 2369 Rocket 3.3 01:27:30 10° N 01:31:56 23° NE 01:36:19 10° ESE
Cosmos 1606 3.8 01:28:21 10° SSW 01:32:07 48° W 01:35:54 10° N
Meteor 1-25 Rocket 4.2 01:30:52 10° N 01:36:27 62° ENE 01:42:06 10° SSE
ERS-2 2.2 01:33:47 10° NNE 01:37:23 54° E 01:40:58 10° S
CZ-4 R/B 3.3 01:40:23 13° NE 01:40:23 13° NE 01:41:12 10° NNE
Cosmos 1939 Rocket 3.2 01:38:11 10° SE 01:41:45 37° ENE 01:45:22 10° N
CREW DRAGON DEMO-1 DEB 2.6 01:39:16 10° NW 01:42:15 78° NE 01:44:39 14° SE
Cosmos 1356 4.4 01:38:59 10° NNW 01:42:18 48° W 01:45:36 10° S
Cosmos 1943 Rocket 2.4 01:38:38 10° N 01:43:56 43° ENE 01:49:14 10° SE
CZ-3B R/B 1.7 01:40:50 10° SSW 01:44:59 42° SE 01:45:50 28° E
IRS-1C Rocket 4.5 01:40:37 10° SE 01:45:30 40° ENE 01:50:25 10° N
CENTAUR R/B 3.9 01:44:14 10° SE 01:47:06 14° ESE 01:47:09 14° ESE
Cosmos 2218 Rocket 3.9 01:41:25 10° N 01:47:33 69° E 01:53:40 10° SSE
USA 81 4.0 01:43:23 10° N 01:48:41 77° E 01:53:57 10° S
FengYun 1-2 T 4.2 01:44:03 10° SSE 01:49:36 88° ENE 01:55:09 10° NNW
H-2A R/B 3.3 01:51:28 20° ENE 01:51:28 20° ENE 01:54:39 10° NNE
Cosmos 44 3.4 01:46:17 10° NNW 01:51:39 78° ENE 01:57:04 10° SE
Cosmos 2366 rocket 3.9 01:46:09 10° N 01:52:19 73° E 01:58:26 10° SSE
YAOGAN 1 4.2 01:59:59 18° NNE 01:59:59 18° NNE 02:01:33 10° NNE
Cosmos 489 Rocket 4.4 01:53:37 10° SSW 01:59:48 80° ESE 02:06:02 10° NNE
BREEZE-M R/B 2.2 02:02:58 10° WNW 02:06:00 74° SW 02:06:15 61° SSE
Cosmos 2297 4.0 02:00:39 10° NNW 02:06:19 71° WSW 02:11:59 10° SSE
Cosmos 1470 Rocket 3.4 02:02:28 10° N 02:06:49 75° E 02:11:06 10° SSE
SL-16 R/B 3.4 02:03:05 10° SW 02:08:21 40° WNW 02:13:39 10° N
Cosmos 2228 Rocket 3.6 02:05:01 10° SSE 02:09:13 38° E 02:09:53 35° ENE
Cosmos 1515 Rocket 3.4 02:06:02 10° S 02:10:24 86° E 02:14:49 10° N
NOSS 3-2 (A) 3.7 02:06:53 10° S 02:11:58 40° ESE 02:13:46 32° ENE
Cosmos 1812 3.7 02:08:37 10° SSE 02:11:05 30° SE 02:11:05 30° SE
Cosmos 1151 Rocket 4.3 02:09:57 10° SSW 02:13:59 40° WNW 02:18:00 10° N
Cosmos 1680 Rocket 4.3 02:11:41 10° SSE 02:15:46 30° ESE 02:15:46 30° ESE
COSMO-SKYMED 1 2.7 02:12:08 10° N 02:16:28 74° WNW 02:20:47 10° SSW
Cosmos 1782 3.3 02:12:59 10° SSW 02:16:53 59° W 02:20:49 10° N
Cosmos 1602 4.0 02:16:59 10° NNW 02:20:51 68° W 02:24:42 10° S
CZ-2D R/B 3.1 02:18:15 10° SSE 02:22:03 84° ENE 02:25:54 10° N
MOS 1 Rocket 3.6 02:19:55 19° NNE 02:23:51 60° E 02:29:08 10° S
Cosmos 1538 Rocket 4.3 02:19:15 10° SSW 02:24:34 69° WNW 02:29:12 14° NNE
USA 215 3.4 02:21:49 23° NE 02:26:05 70° NW 02:32:34 10° WSW
X-37B 1.4 02:23:26 10° W 02:26:11 44° NW 02:26:11 44° NW
Meteor 2-6 Rocket 4.0 02:23:30 10° S 02:29:07 72° E 02:32:54 21° NNE
USA 238 DEB 3.7 02:23:06 10° S 02:29:21 51° ESE 02:31:13 40° ENE
USA 238 3.8 02:23:12 10° S 02:29:27 51° ESE 02:31:16 40° ENE
Cosmos 2263 4.3 02:25:01 10° N 02:30:24 46° ENE 02:30:34 46° ENE
Okean-O 2.4 02:31:58 10° SSE 02:36:23 81° ENE 02:40:50 10° N
Cosmos 1933 Rocket 3.7 02:32:39 10° N 02:37:07 74° W 02:41:33 10° S
Nadezhda 3 Rocket 3.9 02:31:33 10° S 02:37:54 81° E 02:44:18 10° N
Cosmos 1689 Rocket 3.7 02:38:54 35° W 02:38:54 35° W 02:41:14 10° SW
Lacrosse 5 rocket 3.7 02:38:40 10° NW 02:40:06 12° NNW 02:40:39 12° NNW
Cosmos 1656 Rocket 4.4 02:38:04 10° N 02:41:47 35° NNE 02:41:47 35° NNE
Cosmos 1821 Rocket 3.9 02:46:54 10° N 02:53:11 88° W 02:59:30 10° S
USA 267 3.5 02:56:34 49° NE 02:56:35 49° NE 03:02:49 10° NW
DMSP B5D1-3 4.5 02:58:38 74° NNW 02:59:04 82° WNW 03:04:10 10° SSW
CZ-2C R/B 3.4 02:54:03 10° S 02:59:07 61° W 03:03:58 10° NNW
Cosmos 1603 4.3 02:57:59 10° SW 03:03:28 53° WNW 03:05:29 36° N
USA 281 3.2 02:57:33 10° SSE 03:04:06 80° WSW 03:10:43 10° NNW
Cosmos 1943 3.8 03:04:12 10° SW 03:09:42 54° WNW 03:11:10 43° NNW
CZ-4 R/B 4.0 03:16:24 13° NW 03:16:24 13° NW 03:16:59 10° NNW
Cosmos 2369 Rocket 2.9 03:10:46 10° NNW 03:16:15 52° WSW 03:19:05 27° S
Cosmos 1943 Rocket 4.3 03:22:59 10° NW 03:27:21 24° WSW 03:31:44 10° SSW
H-2A R/B 3.5 03:32:06 31° NW 03:32:06 31° NW 03:35:02 10° NNW
NOSS 3-2 (C) 4.4 03:29:41 10° SW 03:32:46 36° SW 03:32:46 36° SW
CENTAUR R/B 3.2 03:30:48 10° SW 03:34:23 42° SW 03:34:23 42° SW
CENTAUR R/B 4.0 11:10:33 45° NE 11:10:33 45° NE 11:18:34 10° ESE
Milstar 3 Cent rocket 4.2 11:26:49 31° SE 11:26:49 31° SE 11:33:52 10° ESE
ATLAS 2AS CENTAUR R/B 3.8 11:25:44 46° SE 11:26:24 47° ESE 11:33:52 10° NE
NOSS 3-2 (A) 4.4 11:38:28 62° SE 11:38:28 62° SE 11:45:25 10° SSE
Lacrosse 4 Rocket 4.5 11:39:59 14° E 11:39:59 14° E 11:41:03 10° E
